星链-30516 (STARLINK-30516 )

导读

STARLINK-30516是美国太空探索技术公司SpaceX星链星座中的一颗卫星,于北京时间2023年9月30日发射入轨,属于星链低轨互联网星座组网卫星,承担着为全球范围内用户提供高速宽带互联网接入服务的任务,是星链工程不断扩展星座规模、完善全球覆盖布局中的一环。

基本信息
目录编号:
57984
目录名称:
STARLINK-30516
国际标识:
2023-151W
轨道中心:
EARTH
卫星名称:
星链-30516
卫星全名:
星链-30516 (STARLINK-30516 )
卫星状态:
在轨 (已飞行1070 天)
发射日期:
2023-09-30 UTC
国别 :
美国 (US)
星等 :
--
轨道信息
数据来源 国际轨道数据
星历时间: 2026-09-04T04:49:37+0800
10小时前
查看轨道信息
半长轴: 6861.194km
偏心率: 0.0001348
轨道倾角: 43.002°
近地点辐角 269.076°
升交点赤经 67.816°
平近点角 90.994°
近地点: 482.132km
远地点: 483.982km
周期: 94.267分钟
每日圈数: 15.275776
详细信息
固有亮度:
5
最大亮度:
0.3
卫星平台:
Starlink v2.0 mini
覆盖范围:
全球
运营商:
太空探索技术公司
运营商所在国:
美国
制造商(研发单位):
太空探索技术公司
制造商所在国:
美国
使用方式:
暂无
卫星简介
星链(Starlink)计划是由太空探索技术公司(SpaceX)提出的一个巨型低轨卫星互联网星座项目,计划在2019年至2024年间在太空搭建由约1.2万颗卫星组成的“星链”网络,其中1584颗将部署在地球上空550千米处的近地轨道,并从2020年开始工作。该卫星仍在工作。
2D轨道图
3D轨道图
轨道高度分析图
轨道倾角分析图
轨道综合分析图
查看轨道综合分析图